User: anonymous   Login
Location: Unspecified
(0.0000°N, 0.0000°E)
Time: 00:08:26
(UTC+02:00)
Language:

Orbus 21S - Orbit

View from above orbital plane
View from above orbital plane
View from above satellite
View from above satellite

Ground track
Ground track

The orbit data is extracted from the following two-line orbital elements,

1 20669U 90056C   17114.45639356 +.00001371 +00000-0 +52589-3 0  9992
2 20669 024.2176 109.3662 7114580 344.9394 001.7033 02.48021488226074
Epoch (UTC): 24 April 2017 10:57:12
Eccentricity: 0.7114580
inclination: 24.2176°
perigee height: 274 km
apogee height: 33077 km
right ascension of ascending node: 109.3662°
argument of perigee: 344.9394°
revolutions per day: 2.48021488
mean anomaly at epoch: 1.7033°
orbit number at epoch: 22607

The dashed part of the orbit path shows where the satellite is in the earth's shadow,  

DLR